Back to Previous

Regional Weather Roundup

249 
ASUS44 KLZK 020905
RWRLZK

WEATHER ROUNDUP FOR ARKANSAS
NATIONAL WEATHER SERVICE LITTLE ROCK AR
400 AM CDT THU APR 02 2015

NOTE: "FAIR" INDICATES FEW OR NO CLOUDS BELOW 12,000 FEET WITH NO
SIGNIFICANT WEATHER AND/OR OBSTRUCTIONS TO VISIBILITY.

ARZ001-003-010-029-021000-
NORTHWEST ARKANSAS
  
CITY           SKY/WX    TMP DP  RH WIND       PRES   REMARKS
FAYETTEVILLE   CLEAR     64  59  83 S15       29.78F                  
FORT SMITH     PTCLDY    59  56  89 NE6       29.80F                  
HARRISON       CLEAR     61  58  90 S9          N/A                   
BENTONVILLE    PTCLDY    64  57  77 S13G22    29.77F                  
ROGERS         PTCLDY    65  59  81 S17G25    29.77F                  
SILOAM SPGS    PTCLDY    64  55  72 S18G25    29.78S                  
HIGHFILL       PTCLDY    65  59  81 S20G26    29.75F                  
$$

ARZ004-005-016-021000-
NORTH CENTRAL ARKANSAS
  
CITY           SKY/WX    TMP DP  RH WIND       PRES   REMARKS
BATESVILLE     PTCLDY    63  59  88 S7G16     29.86S                  
FLIPPIN        CLEAR     61  54  77 CALM      29.79F                  
MTN HOME       CLEAR     58  56  93 S8        29.79F                  
$$

ARZ040-041-021000-
WEST CENTRAL ARKANSAS
  
CITY           SKY/WX    TMP DP  RH WIND       PRES   REMARKS
MENA           MOCLDY    68  63  83 SW7G20    29.86S                  
MOUNT IDA      MOCLDY    69  62  78 MISG      29.84S                  
$$

ARZ009-017-025-026-028-021000-
NORTHEAST ARKANSAS
  
CITY           SKY/WX    TMP DP  RH WIND       PRES   REMARKS
CORNING          N/A     61  59  94 S10       29.86S                  
NEWPORT        MOCLDY    63  61  93 S13       29.88S                  
BLYTHEVILLE    CLOUDY    62  62 100 S7        29.89F                  
$$

ARZ022-023-033-042-044-021000-
CENTRAL ARKANSAS
  
CITY           SKY/WX    TMP DP  RH WIND       PRES   REMARKS
LITTLE ROCK    CLEAR     65  60  84 S9        29.88F                  
N LITTLE ROCK    N/A     64  63  97 SW7       29.88F                  
JACKSONVILLE   CLEAR     64  63  97 S6        29.87F                  
SEARCY         CLOUDY    63  61  93 S7        29.89F                  
HOT SPRINGS    MOCLDY    67  63  87 S8        29.88S                  
RUSSELLVILLE   PTCLDY    61  59  93 E3        29.85S                  
CLINTON        CLOUDY    57  57 100 CALM      29.87F FOG              
$$

ARZ036-021000-
EAST ARKANSAS
  
CITY           SKY/WX    TMP DP  RH WIND       PRES   REMARKS
WEST MEMPHIS   CLOUDY    67  61  81 S14       29.91R                  
$$

ARZ050-053-066-070-073-021000-
SOUTHWEST ARKANSAS
  
CITY           SKY/WX    TMP DP  RH WIND       PRES   REMARKS
ARKADELPHIA    PTSUNNY   67  67 100 S8        29.90S                  
CAMDEN         PTCLDY    68  63  83 MISG      29.92S                  
TEXARKANA      MOCLDY    67  64  90 S13       29.88F                  
EL DORADO      CLOUDY    67  63  87 S7        29.93F                  
DE QUEEN       CLEAR     58  57  97 CALM      29.85F FOG              
$$

ARZ056-057-069-021000-
SOUTHEAST ARKANSAS
  
CITY           SKY/WX    TMP DP  RH WIND       PRES   REMARKS
PINE BLUFF     CLOUDY    68  63  84 S13G20    29.91F                  
STUTTGART      PTCLDY    68  61  77 S15       29.90F                  
MONTICELLO     CLOUDY    68  63  84 S9        29.93F                  

$$




USA.gov is the U.S. government's official web portal to all federal, state and local government web resources and services.